Flag for Germany Weather past 2 weeks in Ingolstadt, Bavaria, Germany

Now
70 °F

Mild.


Feels Like: 70 °F
Forecast: 56 / 65 °F
Wind: 6 mph from Southwest

Location: Ingolstadt Airport

Current Time: Sep 20, 2014 at 4:34:21 PM

Latest Report: Sep 20, 2014 at 3:20 PM


Visibility: 3 mi

Pressure: 29.98 "Hg

Humidity: 69%

Dew point: 59 °F

Location of IngolstadtLocation

Historic Weather in Ingolstadt — Graph

°F

Ingolstadt temperature yesterday

Maximum temperature yesterday: 77 °F (at 4:20 PM)
Minimum temperature yesterday: 55 °F (at 6:20 AM)
Average temperature yesterday: 65 °F

Past Weeks' High & Low Weather Summary

 TemperatureHumidityPressure
High79 °F (Sep 7, 5:20 PM)100% (Sep 6, 2:20 AM)30.12 "Hg (Sep 6, 2:20 AM)
Low48 °F (Sep 10, 4:20 AM)45% (Sep 7, 5:20 PM)29.89 "Hg (Sep 6, 4:20 PM)
Average61 °F85%30.00 "Hg
* Reported Sep 5 2:20 PM — Sep 20 2:20 PM, Ingolstadt, Weather by CustomWeather, © 2014

Note: Actual official high and low records may vary slightly from our data, if they occured in-between our weather recording intervals... More about our weather records

Advertising

Ingolstadt weather history for previous 24 hours

 ConditionsComfort  
Time TempWeatherWind HumidityBarometerVisibility
2:20 PM
Sep 20
68 °FMild.8 mph73%30.01 "Hg3 mi
1:20 PM66 °FMild.3 mph83%30.01 "Hg3 mi
12:20 PM68 °FMild.7 mph78%30.01 "Hg3 mi
11:20 AM66 °FMild.5 mph83%30.01 "Hg3 mi
10:20 AM64 °FMild.7 mph88%30.01 "Hg3 mi
9:20 AM63 °FMild.1 mph94%30.01 "Hg3 mi
8:20 AM61 °FCool.2 mph94%29.98 "Hg3 mi
7:20 AM59 °FCool.No wind100%30.01 "Hg2 mi
6:20 AM59 °FCool.No wind94%30.01 "Hg2 mi
5:20 AM59 °FCool.No wind100%30.01 "Hg3 mi
4:20 AM59 °FCool.No wind94%30.01 "Hg3 mi
3:20 AM61 °FCool.No wind94%30.01 "Hg4 mi
2:20 AM61 °FCool.No wind94%30.01 "Hg4 mi
1:20 AM59 °FCool.No wind94%30.01 "Hg4 mi
12:20 AM63 °FMild.1 mph88%30.01 "Hg4 mi
11:20 PM
Sep 19
63 °FPassing clouds.No wind88%30.01 "HgN/A
10:20 PM63 °FPassing clouds.No wind88%30.01 "HgN/A
9:20 PM63 °FPartly cloudy.2 mph83%29.98 "HgN/A
8:20 PM68 °FThundershowers. Partly cloudy.2 mph64%29.98 "HgN/A
7:47 PM70 °FThunderstorms. Broken clouds.8 mph64%29.98 "HgN/A
7:20 PM68 °FMild.No wind83%29.95 "Hg4 mi
6:20 PM72 °FBroken clouds.No wind69%29.95 "HgN/A
5:20 PM75 °FPartly sunny.1 mph57%29.95 "HgN/A
4:20 PM77 °FPartly sunny.3 mph54%29.95 "HgN/A
Weather by CustomWeather, © 2014

See weather overviewHow to use our weather pages